Year,Month,Day,Hour,Minute,Value (Times are PST for windgust in km/hr)
2016,03,10,00,01,3.20
2016,03,10,00,02,3.20
2016,03,10,00,03,3.20
2016,03,10,00,04,1.60
2016,03,10,00,05,1.60
2016,03,10,00,08,4.80
2016,03,10,00,09,4.80
2016,03,10,00,10,3.20
2016,03,10,00,11,1.60
2016,03,10,00,12,3.20
2016,03,10,00,13,4.80
2016,03,10,00,14,4.80
2016,03,10,00,15,4.80
2016,03,10,00,16,1.60
2016,03,10,00,20,1.60
2016,03,10,00,21,1.60
2016,03,10,00,22,3.20
2016,03,10,00,23,4.80
2016,03,10,00,24,4.80
2016,03,10,00,25,3.20
2016,03,10,00,26,1.60
2016,03,10,00,27,3.20
2016,03,10,00,28,3.20
2016,03,10,00,29,8.10
2016,03,10,00,30,9.60
2016,03,10,00,31,6.40
2016,03,10,00,32,4.80
2016,03,10,00,33,1.60
2016,03,10,00,34,1.60
2016,03,10,00,35,1.60
2016,03,10,00,36,3.20
2016,03,10,00,37,4.80
2016,03,10,00,38,3.20
2016,03,10,00,40,3.20
2016,03,10,00,41,3.20
2016,03,10,00,42,3.20
2016,03,10,00,43,3.20
2016,03,10,00,44,3.20
2016,03,10,00,45,1.60
2016,03,10,00,46,3.20
2016,03,10,00,47,1.60
2016,03,10,00,48,3.20
2016,03,10,00,49,4.80
2016,03,10,00,50,4.80
2016,03,10,00,51,4.80
2016,03,10,00,52,1.60
2016,03,10,00,53,1.60
2016,03,10,00,54,1.60
2016,03,10,00,55,3.20
2016,03,10,00,59,4.80
2016,03,10,01,00,4.80
2016,03,10,01,01,8.10
2016,03,10,01,02,6.40
2016,03,10,01,03,1.60
2016,03,10,01,04,3.20
2016,03,10,01,05,4.80
2016,03,10,01,06,8.10
2016,03,10,01,07,8.10
2016,03,10,01,08,8.10
2016,03,10,01,09,14.50
2016,03,10,01,10,9.60
2016,03,10,01,11,4.80
2016,03,10,01,12,8.10
2016,03,10,01,13,4.80
2016,03,10,01,14,3.20
2016,03,10,01,15,8.10
2016,03,10,01,16,9.60
2016,03,10,01,17,8.10
2016,03,10,01,18,3.20
2016,03,10,01,19,9.60
2016,03,10,01,20,6.40
2016,03,10,01,21,4.80
2016,03,10,01,22,3.20
2016,03,10,01,23,6.40
2016,03,10,01,24,12.90
2016,03,10,01,25,11.30
2016,03,10,01,26,8.10
2016,03,10,01,27,6.40
2016,03,10,01,28,8.10
2016,03,10,01,29,1.60
2016,03,10,01,30,6.40
2016,03,10,01,31,16.10
2016,03,10,01,32,11.30
2016,03,10,01,33,11.30
2016,03,10,01,34,4.80
2016,03,10,01,35,12.90
2016,03,10,01,36,19.30
2016,03,10,01,37,16.10
2016,03,10,01,38,11.30
2016,03,10,01,39,1.60
2016,03,10,01,40,8.10
2016,03,10,01,41,4.80
2016,03,10,01,42,9.60
2016,03,10,01,43,11.30
2016,03,10,01,44,16.10
2016,03,10,01,45,12.90
2016,03,10,01,46,17.70
2016,03,10,01,47,12.90
2016,03,10,01,48,12.90
2016,03,10,01,49,11.30
2016,03,10,01,50,6.40
2016,03,10,01,51,14.50
2016,03,10,01,52,11.30
2016,03,10,01,53,8.10
2016,03,10,01,54,4.80
2016,03,10,01,55,8.10
2016,03,10,01,56,8.10
2016,03,10,01,57,4.80
2016,03,10,01,58,4.80
2016,03,10,01,59,1.60
2016,03,10,02,00,3.20
2016,03,10,02,01,3.20
2016,03,10,02,02,3.20
2016,03,10,02,03,3.20
2016,03,10,02,04,4.80
2016,03,10,02,05,11.30
2016,03,10,02,06,12.90
2016,03,10,02,07,6.40
2016,03,10,02,08,11.30
2016,03,10,02,09,9.60
2016,03,10,02,10,16.10
2016,03,10,02,11,17.70
2016,03,10,02,12,22.50
2016,03,10,02,13,12.90
2016,03,10,02,14,12.90
2016,03,10,02,15,12.90
2016,03,10,02,16,14.50
2016,03,10,02,17,16.10
2016,03,10,02,18,16.10
2016,03,10,02,19,1.60
2016,03,10,02,20,3.20
2016,03,10,02,21,3.20
2016,03,10,02,23,6.40
2016,03,10,02,24,8.10
2016,03,10,02,25,8.10
2016,03,10,02,26,8.10
2016,03,10,02,27,8.10
2016,03,10,02,28,9.60
2016,03,10,02,29,8.10
2016,03,10,02,30,6.40
2016,03,10,02,31,4.80
2016,03,10,02,32,4.80
2016,03,10,02,33,1.60
2016,03,10,02,34,1.60
2016,03,10,02,35,1.60
2016,03,10,02,36,1.60
2016,03,10,02,37,4.80
2016,03,10,02,38,4.80
2016,03,10,02,39,6.40
2016,03,10,02,40,8.10
2016,03,10,02,41,1.60
2016,03,10,02,42,3.20
2016,03,10,02,43,4.80
2016,03,10,02,44,1.60
2016,03,10,02,45,3.20
2016,03,10,02,46,8.10
2016,03,10,02,47,11.30
2016,03,10,02,48,11.30
2016,03,10,02,49,12.90
2016,03,10,02,50,6.40
2016,03,10,02,51,11.30
2016,03,10,02,52,6.40
2016,03,10,02,53,6.40
2016,03,10,02,54,6.40
2016,03,10,02,55,8.10
2016,03,10,02,56,11.30
2016,03,10,02,57,8.10
2016,03,10,02,58,3.20
2016,03,10,02,59,3.20
2016,03,10,03,00,1.60
2016,03,10,03,01,3.20
2016,03,10,03,02,3.20
2016,03,10,03,03,4.80
2016,03,10,03,04,4.80
2016,03,10,03,05,3.20
2016,03,10,03,06,3.20
2016,03,10,03,07,3.20
2016,03,10,03,08,6.40
2016,03,10,03,09,3.20
2016,03,10,03,10,1.60
2016,03,10,03,11,1.60
2016,03,10,03,12,1.60
2016,03,10,03,13,4.80
2016,03,10,03,14,8.10
2016,03,10,03,16,1.60
2016,03,10,03,20,1.60
2016,03,10,03,21,3.20
2016,03,10,03,22,4.80
2016,03,10,03,23,1.60
2016,03,10,03,24,1.60
2016,03,10,03,25,4.80
2016,03,10,03,26,4.80
2016,03,10,03,27,4.80
2016,03,10,03,28,3.20
2016,03,10,03,29,1.60
2016,03,10,03,31,3.20
2016,03,10,03,32,3.20
2016,03,10,03,33,1.60
2016,03,10,03,35,3.20
2016,03,10,03,36,3.20
2016,03,10,03,37,3.20
2016,03,10,03,38,1.60
2016,03,10,03,39,1.60
2016,03,10,03,42,3.20
2016,03,10,03,43,3.20
2016,03,10,03,44,1.60
2016,03,10,03,45,1.60
2016,03,10,03,46,3.20
2016,03,10,03,47,1.60
2016,03,10,03,48,1.60
2016,03,10,03,49,1.60
2016,03,10,03,53,1.60
2016,03,10,03,54,1.60
2016,03,10,03,55,1.60
2016,03,10,03,57,3.20
2016,03,10,03,58,4.80
2016,03,10,03,59,4.80
2016,03,10,04,00,1.60
2016,03,10,04,02,1.60
2016,03,10,04,05,1.60
2016,03,10,04,06,1.60
2016,03,10,04,07,1.60
2016,03,10,04,08,3.20
2016,03,10,04,09,3.20
2016,03,10,04,10,3.20
2016,03,10,04,14,1.60
2016,03,10,04,15,1.60
2016,03,10,04,16,1.60
2016,03,10,04,17,1.60
2016,03,10,04,21,1.60
2016,03,10,04,22,1.60
2016,03,10,04,23,1.60
2016,03,10,04,24,4.80
2016,03,10,04,25,1.60
2016,03,10,04,26,1.60
2016,03,10,04,27,3.20
2016,03,10,04,28,4.80
2016,03,10,04,29,4.80
2016,03,10,04,30,4.80
2016,03,10,04,31,3.20
2016,03,10,04,32,3.20
2016,03,10,04,33,1.60
2016,03,10,04,36,1.60
2016,03,10,04,37,1.60
2016,03,10,04,40,3.20
2016,03,10,04,41,3.20
2016,03,10,04,42,3.20
2016,03,10,04,43,1.60
2016,03,10,04,44,3.20
2016,03,10,04,45,1.60
2016,03,10,04,46,3.20
2016,03,10,04,47,3.20
2016,03,10,04,48,4.80
2016,03,10,04,49,4.80
2016,03,10,04,50,4.80
2016,03,10,04,51,1.60
2016,03,10,04,53,1.60
2016,03,10,04,54,1.60
2016,03,10,04,55,1.60
2016,03,10,04,56,1.60
2016,03,10,04,57,1.60
2016,03,10,05,00,1.60
2016,03,10,05,03,1.60
2016,03,10,05,04,1.60
2016,03,10,05,07,1.60
2016,03,10,05,08,1.60
2016,03,10,05,10,1.60
2016,03,10,05,12,1.60
2016,03,10,05,13,1.60
2016,03,10,05,14,3.20
2016,03,10,05,15,1.60
2016,03,10,05,19,1.60
2016,03,10,05,20,1.60
2016,03,10,05,22,1.60
2016,03,10,05,23,1.60
2016,03,10,05,27,1.60
2016,03,10,05,28,4.80
2016,03,10,05,29,4.80
2016,03,10,05,30,4.80
2016,03,10,05,31,3.20
2016,03,10,05,32,3.20
2016,03,10,05,33,3.20
2016,03,10,05,34,3.20
2016,03,10,05,35,1.60
2016,03,10,05,37,1.60
2016,03,10,05,38,3.20
2016,03,10,05,39,3.20
2016,03,10,05,40,4.80
2016,03,10,05,41,4.80
2016,03,10,05,42,4.80
2016,03,10,05,43,4.80
2016,03,10,05,44,3.20
2016,03,10,05,45,1.60
2016,03,10,05,46,1.60
2016,03,10,05,47,3.20
2016,03,10,05,48,8.10
2016,03,10,05,49,4.80
2016,03,10,05,50,3.20
2016,03,10,05,51,8.10
2016,03,10,05,52,8.10
2016,03,10,05,53,8.10
2016,03,10,05,54,9.60
2016,03,10,05,55,4.80
2016,03,10,05,56,3.20
2016,03,10,05,57,4.80
2016,03,10,05,58,4.80
2016,03,10,05,59,4.80
2016,03,10,06,00,1.60
2016,03,10,06,01,1.60
2016,03,10,06,02,3.20
2016,03,10,06,03,1.60
2016,03,10,06,06,3.20
2016,03,10,06,07,3.20
2016,03,10,06,08,4.80
2016,03,10,06,09,4.80
2016,03,10,06,10,4.80
2016,03,10,06,11,8.10
2016,03,10,06,12,9.60
2016,03,10,06,13,4.80
2016,03,10,06,14,4.80
2016,03,10,06,15,4.80
2016,03,10,06,16,8.10
2016,03,10,06,17,8.10
2016,03,10,06,18,6.40
2016,03,10,06,19,6.40
2016,03,10,06,20,3.20
2016,03,10,06,21,4.80
2016,03,10,06,22,4.80
2016,03,10,06,23,4.80
2016,03,10,06,24,4.80
2016,03,10,06,25,4.80
2016,03,10,06,26,3.20
2016,03,10,06,27,3.20
2016,03,10,06,28,4.80
2016,03,10,06,29,4.80
2016,03,10,06,30,4.80
2016,03,10,06,31,3.20
2016,03,10,06,32,1.60
2016,03,10,06,33,1.60
2016,03,10,06,34,1.60
2016,03,10,06,35,3.20
2016,03,10,06,36,1.60
2016,03,10,06,37,3.20
2016,03,10,06,38,3.20
2016,03,10,06,39,4.80
2016,03,10,06,40,1.60
2016,03,10,06,41,6.40
2016,03,10,06,42,6.40
2016,03,10,06,43,6.40
2016,03,10,06,44,8.10
2016,03,10,06,45,6.40
2016,03,10,06,46,6.40
2016,03,10,06,47,6.40
2016,03,10,06,48,8.10
2016,03,10,06,49,8.10
2016,03,10,06,50,9.60
2016,03,10,06,51,9.60
2016,03,10,06,52,14.50
2016,03,10,06,53,8.10
2016,03,10,06,54,8.10
2016,03,10,06,55,6.40
2016,03,10,06,56,4.80
2016,03,10,06,57,1.60
2016,03,10,06,58,4.80
2016,03,10,06,59,3.20
2016,03,10,07,00,4.80
2016,03,10,07,01,1.60
2016,03,10,07,02,1.60
2016,03,10,07,03,1.60
2016,03,10,07,04,4.80
2016,03,10,07,05,4.80
2016,03,10,07,06,4.80
2016,03,10,07,07,4.80
2016,03,10,07,08,4.80
2016,03,10,07,09,3.20
2016,03,10,07,10,1.60
2016,03,10,07,11,3.20
2016,03,10,07,12,3.20
2016,03,10,07,13,3.20
2016,03,10,07,14,1.60
2016,03,10,07,15,1.60
2016,03,10,07,20,1.60
2016,03,10,07,21,1.60
2016,03,10,07,22,1.60
2016,03,10,07,23,1.60
2016,03,10,07,24,4.80
2016,03,10,07,25,6.40
2016,03,10,07,26,4.80
2016,03,10,07,27,3.20
2016,03,10,07,28,3.20
2016,03,10,07,29,3.20
2016,03,10,07,30,3.20
2016,03,10,07,33,3.20
2016,03,10,07,34,3.20
2016,03,10,07,35,1.60
2016,03,10,07,36,1.60
2016,03,10,07,37,3.20
2016,03,10,07,38,3.20
2016,03,10,07,39,3.20
2016,03,10,07,40,3.20
2016,03,10,07,41,3.20
2016,03,10,07,42,4.80
2016,03,10,07,43,3.20
2016,03,10,07,44,8.10
2016,03,10,07,45,6.40
2016,03,10,07,46,4.80
2016,03,10,07,47,4.80
2016,03,10,07,48,4.80
2016,03,10,07,49,8.10
2016,03,10,07,50,9.60
2016,03,10,07,51,4.80
2016,03,10,07,52,4.80
2016,03,10,07,53,4.80
2016,03,10,07,54,1.60
2016,03,10,07,55,3.20
2016,03,10,07,56,4.80
2016,03,10,07,57,11.30
2016,03,10,07,58,8.10
2016,03,10,07,59,6.40
2016,03,10,08,00,4.80
2016,03,10,08,01,9.60
2016,03,10,08,02,6.40
2016,03,10,08,03,8.10
2016,03,10,08,04,6.40
2016,03,10,08,05,9.60
2016,03,10,08,06,11.30
2016,03,10,08,07,12.90
2016,03,10,08,08,12.90
2016,03,10,08,09,3.20
2016,03,10,08,10,3.20
2016,03,10,08,11,3.20
2016,03,10,08,12,4.80
2016,03,10,08,13,3.20
2016,03,10,08,14,3.20
2016,03,10,08,15,3.20
2016,03,10,08,16,3.20
2016,03,10,08,17,4.80
2016,03,10,08,18,4.80
2016,03,10,08,19,4.80
2016,03,10,08,20,3.20
2016,03,10,08,21,4.80
2016,03,10,08,22,4.80
2016,03,10,08,23,11.30
2016,03,10,08,24,9.60
2016,03,10,08,25,6.40
2016,03,10,08,26,6.40
2016,03,10,08,27,8.10
2016,03,10,08,28,11.30
2016,03,10,08,29,12.90
2016,03,10,08,30,11.30
2016,03,10,08,31,8.10
2016,03,10,08,32,4.80
2016,03,10,08,33,9.60
2016,03,10,08,34,11.30
2016,03,10,08,35,8.10
2016,03,10,08,36,8.10
2016,03,10,08,37,8.10
2016,03,10,08,38,14.50
2016,03,10,08,39,12.90
2016,03,10,08,40,9.60
2016,03,10,08,41,11.30
2016,03,10,08,42,11.30
2016,03,10,08,43,14.50
2016,03,10,08,44,14.50
2016,03,10,08,45,11.30
2016,03,10,08,46,16.10
2016,03,10,08,47,12.90
2016,03,10,08,48,12.90
2016,03,10,08,49,9.60
2016,03,10,08,50,17.70
2016,03,10,08,51,14.50
2016,03,10,08,52,11.30
2016,03,10,08,53,9.60
2016,03,10,08,54,12.90
2016,03,10,08,55,17.70
2016,03,10,08,56,14.50
2016,03,10,08,57,16.10
2016,03,10,08,58,14.50
2016,03,10,08,59,14.50
2016,03,10,09,00,16.10
2016,03,10,09,01,11.30
2016,03,10,09,02,8.10
2016,03,10,09,03,14.50
2016,03,10,09,04,17.70
2016,03,10,09,05,11.30
2016,03,10,09,06,22.50
2016,03,10,09,07,20.90
2016,03,10,09,08,16.10
2016,03,10,09,09,12.90
2016,03,10,09,10,9.60
2016,03,10,09,11,11.30
2016,03,10,09,12,12.90
2016,03,10,09,13,8.10
2016,03,10,09,14,14.50
2016,03,10,09,15,11.30
2016,03,10,09,16,9.60
2016,03,10,09,17,8.10
2016,03,10,09,18,8.10
2016,03,10,09,19,8.10
2016,03,10,09,20,8.10
2016,03,10,09,21,8.10
2016,03,10,09,22,8.10
2016,03,10,09,23,8.10
2016,03,10,09,24,14.50
2016,03,10,09,25,14.50
2016,03,10,09,26,11.30
2016,03,10,09,27,6.40
2016,03,10,09,28,4.80
2016,03,10,09,29,4.80
2016,03,10,09,30,8.10
2016,03,10,09,31,9.60
2016,03,10,09,32,9.60
2016,03,10,09,33,11.30
2016,03,10,09,34,12.90
2016,03,10,09,35,12.90
2016,03,10,09,36,11.30
2016,03,10,09,37,11.30
2016,03,10,09,38,14.50
2016,03,10,09,39,12.90
2016,03,10,09,40,12.90
2016,03,10,09,41,12.90
2016,03,10,09,42,11.30
2016,03,10,09,43,20.90
2016,03,10,09,44,17.70
2016,03,10,09,45,9.60
2016,03,10,09,46,12.90
2016,03,10,09,47,8.10
2016,03,10,09,48,11.30
2016,03,10,09,49,8.10
2016,03,10,09,50,16.10
2016,03,10,09,51,9.60
2016,03,10,09,52,4.80
2016,03,10,09,53,6.40
2016,03,10,09,54,6.40
2016,03,10,09,55,9.60
2016,03,10,09,56,4.80
2016,03,10,09,57,4.80
2016,03,10,09,58,8.10
2016,03,10,09,59,11.30
2016,03,10,10,00,14.50
2016,03,10,10,01,19.30
2016,03,10,10,02,12.90
2016,03,10,10,03,17.70
2016,03,10,10,04,11.30
2016,03,10,10,05,11.30
2016,03,10,10,06,16.10
2016,03,10,10,07,9.60
2016,03,10,10,08,8.10
2016,03,10,10,09,11.30
2016,03,10,10,10,11.30
2016,03,10,10,11,12.90
2016,03,10,10,12,11.30
2016,03,10,10,13,4.80
2016,03,10,10,14,11.30
2016,03,10,10,15,11.30
2016,03,10,10,16,6.40
2016,03,10,10,17,9.60
2016,03,10,10,18,9.60
2016,03,10,10,19,17.70
2016,03,10,10,20,14.50
2016,03,10,10,21,11.30
2016,03,10,10,22,4.80
2016,03,10,10,23,8.10
2016,03,10,10,24,12.90
2016,03,10,10,25,22.50
2016,03,10,10,26,22.50
2016,03,10,10,27,17.70
2016,03,10,10,28,20.90
2016,03,10,10,29,14.50
2016,03,10,10,30,16.10
2016,03,10,10,31,9.60
2016,03,10,10,32,9.60
2016,03,10,10,33,16.10
2016,03,10,10,34,17.70
2016,03,10,10,35,24.20
2016,03,10,10,36,17.70
2016,03,10,10,37,24.20
2016,03,10,10,38,24.20
2016,03,10,10,39,14.50
2016,03,10,10,40,16.10
2016,03,10,10,41,16.10
2016,03,10,10,42,17.70
2016,03,10,10,43,14.50
2016,03,10,10,44,16.10
2016,03,10,10,45,17.70
2016,03,10,10,46,16.10
2016,03,10,10,47,16.10
2016,03,10,10,48,22.50
2016,03,10,10,49,12.90
2016,03,10,10,50,12.90
2016,03,10,10,51,12.90
2016,03,10,10,52,19.30
2016,03,10,10,53,16.10
2016,03,10,10,54,12.90
2016,03,10,10,55,11.30
2016,03,10,10,56,14.50
2016,03,10,10,57,20.90
2016,03,10,10,58,16.10
2016,03,10,10,59,12.90
2016,03,10,11,00,16.10
2016,03,10,11,01,14.50
2016,03,10,11,02,12.90
2016,03,10,11,03,16.10
2016,03,10,11,04,12.90
2016,03,10,11,05,14.50
2016,03,10,11,06,12.90
2016,03,10,11,07,14.50
2016,03,10,11,08,12.90
2016,03,10,11,09,12.90
2016,03,10,11,10,6.40
2016,03,10,11,11,8.10
2016,03,10,11,12,17.70
2016,03,10,11,13,11.30
2016,03,10,11,14,11.30
2016,03,10,11,15,9.60
2016,03,10,11,16,8.10
2016,03,10,11,17,4.80
2016,03,10,11,18,3.20
2016,03,10,11,19,4.80
2016,03,10,11,20,8.10
2016,03,10,11,21,14.50
2016,03,10,11,22,11.30
2016,03,10,11,23,12.90
2016,03,10,11,24,6.40
2016,03,10,11,25,11.30
2016,03,10,11,26,6.40
2016,03,10,11,27,11.30
2016,03,10,11,28,9.60
2016,03,10,11,29,6.40
2016,03,10,11,30,8.10
2016,03,10,11,31,6.40
2016,03,10,11,32,6.40
2016,03,10,11,33,14.50
2016,03,10,11,34,16.10
2016,03,10,11,35,11.30
2016,03,10,11,36,3.20
2016,03,10,11,37,3.20
2016,03,10,11,38,4.80
2016,03,10,11,39,11.30
2016,03,10,11,40,11.30
2016,03,10,11,41,6.40
2016,03,10,11,42,8.10
2016,03,10,11,43,4.80
2016,03,10,11,44,4.80
2016,03,10,11,45,8.10
2016,03,10,11,46,8.10
2016,03,10,11,47,17.70
2016,03,10,11,48,16.10
2016,03,10,11,49,9.60
2016,03,10,11,50,3.20
2016,03,10,11,51,4.80
2016,03,10,11,52,3.20
2016,03,10,11,53,11.30
2016,03,10,11,54,8.10
2016,03,10,11,55,8.10
2016,03,10,11,56,11.30
2016,03,10,11,57,11.30
2016,03,10,11,58,6.40
2016,03,10,11,59,11.30
2016,03,10,12,00,9.60
2016,03,10,12,01,9.60
2016,03,10,12,02,19.30
2016,03,10,12,03,16.10
2016,03,10,12,04,9.60
2016,03,10,12,05,11.30
2016,03,10,12,06,11.30
2016,03,10,12,07,17.70
2016,03,10,12,08,14.50
2016,03,10,12,09,16.10
2016,03,10,12,10,14.50
2016,03,10,12,11,14.50
2016,03,10,12,12,16.10
2016,03,10,12,13,9.60
2016,03,10,12,14,17.70
2016,03,10,12,15,14.50
2016,03,10,12,16,14.50
2016,03,10,12,17,12.90
2016,03,10,12,18,12.90
2016,03,10,12,19,9.60
2016,03,10,12,20,11.30
2016,03,10,12,21,8.10
2016,03,10,12,22,8.10
2016,03,10,12,23,6.40
2016,03,10,12,24,8.10
2016,03,10,12,25,9.60
2016,03,10,12,26,11.30
2016,03,10,12,27,4.80
2016,03,10,12,28,8.10
2016,03,10,12,29,4.80
2016,03,10,12,30,4.80
2016,03,10,12,31,4.80
2016,03,10,12,32,8.10
2016,03,10,12,33,8.10
2016,03,10,12,34,6.40
2016,03,10,12,35,8.10
2016,03,10,12,36,11.30
2016,03,10,12,37,4.80
2016,03,10,12,38,6.40
2016,03,10,12,39,6.40
2016,03,10,12,40,4.80
2016,03,10,12,41,3.20
2016,03,10,12,42,3.20
2016,03,10,12,43,4.80
2016,03,10,12,44,4.80
2016,03,10,12,45,6.40
2016,03,10,12,46,11.30
2016,03,10,12,47,11.30
2016,03,10,12,48,9.60
2016,03,10,12,49,8.10
2016,03,10,12,50,11.30
2016,03,10,12,51,8.10
2016,03,10,12,52,6.40
2016,03,10,12,53,8.10
2016,03,10,12,54,12.90
2016,03,10,12,55,14.50
2016,03,10,12,56,11.30
2016,03,10,12,57,6.40
2016,03,10,12,58,3.20
2016,03,10,12,59,6.40
2016,03,10,13,00,6.40
2016,03,10,13,01,6.40
2016,03,10,13,02,12.90
2016,03,10,13,03,8.10
2016,03,10,13,04,20.90
2016,03,10,13,05,9.60
2016,03,10,13,06,14.50
2016,03,10,13,07,6.40
2016,03,10,13,08,4.80
2016,03,10,13,09,6.40
2016,03,10,13,10,8.10
2016,03,10,13,11,4.80
2016,03,10,13,12,12.90
2016,03,10,13,13,6.40
2016,03,10,13,14,12.90
2016,03,10,13,15,12.90
2016,03,10,13,16,9.60
2016,03,10,13,17,4.80
2016,03,10,13,18,4.80
2016,03,10,13,19,9.60
2016,03,10,13,20,8.10
2016,03,10,13,21,8.10
2016,03,10,13,22,9.60
2016,03,10,13,23,9.60
2016,03,10,13,24,4.80
2016,03,10,13,25,1.60
2016,03,10,13,26,4.80
2016,03,10,13,27,9.60
2016,03,10,13,28,11.30
2016,03,10,13,29,9.60
2016,03,10,13,30,9.60
2016,03,10,13,31,9.60
2016,03,10,13,32,6.40
2016,03,10,13,33,8.10
2016,03,10,13,34,8.10
2016,03,10,13,35,4.80
2016,03,10,13,36,9.60
2016,03,10,13,37,8.10
2016,03,10,13,38,11.30
2016,03,10,13,39,14.50
2016,03,10,13,40,17.70
2016,03,10,13,41,12.90
2016,03,10,13,42,8.10
2016,03,10,13,43,9.60
2016,03,10,13,44,14.50
2016,03,10,13,45,12.90
2016,03,10,13,46,12.90
2016,03,10,13,47,8.10
2016,03,10,13,48,9.60
2016,03,10,13,49,16.10
2016,03,10,13,50,14.50
2016,03,10,13,51,19.30
2016,03,10,13,52,12.90
2016,03,10,13,53,12.90
2016,03,10,13,54,8.10
2016,03,10,13,55,8.10
2016,03,10,13,56,8.10
2016,03,10,13,57,8.10
2016,03,10,13,58,14.50
2016,03,10,13,59,8.10
2016,03,10,14,00,11.30
2016,03,10,14,01,8.10
2016,03,10,14,02,8.10
2016,03,10,14,03,4.80
2016,03,10,14,04,8.10
2016,03,10,14,05,9.60
2016,03,10,14,06,6.40
2016,03,10,14,07,4.80
2016,03,10,14,08,9.60
2016,03,10,14,09,9.60
2016,03,10,14,10,12.90
2016,03,10,14,11,12.90
2016,03,10,14,12,9.60
2016,03,10,14,13,4.80
2016,03,10,14,14,4.80
2016,03,10,14,15,4.80
2016,03,10,14,16,4.80
2016,03,10,14,17,8.10
2016,03,10,14,18,8.10
2016,03,10,14,19,16.10
2016,03,10,14,20,14.50
2016,03,10,14,21,14.50
2016,03,10,14,22,11.30
2016,03,10,14,23,9.60
2016,03,10,14,24,8.10
2016,03,10,14,25,9.60
2016,03,10,14,26,11.30
2016,03,10,14,27,8.10
2016,03,10,14,28,8.10
2016,03,10,14,29,11.30
2016,03,10,14,30,14.50
2016,03,10,14,31,16.10
2016,03,10,14,32,12.90
2016,03,10,14,33,14.50
2016,03,10,14,34,16.10
2016,03,10,14,35,17.70
2016,03,10,14,36,19.30
2016,03,10,14,37,12.90
2016,03,10,14,38,11.30
2016,03,10,14,39,14.50
2016,03,10,14,40,12.90
2016,03,10,14,41,12.90
2016,03,10,14,42,14.50
2016,03,10,14,43,14.50
2016,03,10,14,44,11.30
2016,03,10,14,45,11.30
2016,03,10,14,46,11.30
2016,03,10,14,47,11.30
2016,03,10,14,48,11.30
2016,03,10,14,49,12.90
2016,03,10,14,50,12.90
2016,03,10,14,51,9.60
2016,03,10,14,52,11.30
2016,03,10,14,53,12.90
2016,03,10,14,54,12.90
2016,03,10,14,55,8.10
2016,03,10,14,56,6.40
2016,03,10,14,57,6.40
2016,03,10,14,58,9.60
2016,03,10,14,59,12.90
2016,03,10,15,00,14.50
2016,03,10,15,01,14.50
2016,03,10,15,02,9.60
2016,03,10,15,03,9.60
2016,03,10,15,04,14.50
2016,03,10,15,05,8.10
2016,03,10,15,06,4.80
2016,03,10,15,07,11.30
2016,03,10,15,08,8.10
2016,03,10,15,09,6.40
2016,03,10,15,10,4.80
2016,03,10,15,11,8.10
2016,03,10,15,12,4.80
2016,03,10,15,13,9.60
2016,03,10,15,14,6.40
2016,03,10,15,15,8.10
2016,03,10,15,16,14.50
2016,03,10,15,17,16.10
2016,03,10,15,18,11.30
2016,03,10,15,19,6.40
2016,03,10,15,20,6.40
2016,03,10,15,21,4.80
2016,03,10,15,22,8.10
2016,03,10,15,23,8.10
2016,03,10,15,24,4.80
2016,03,10,15,25,8.10
2016,03,10,15,26,4.80
2016,03,10,15,27,8.10
2016,03,10,15,28,3.20
2016,03,10,15,29,6.40
2016,03,10,15,30,6.40
2016,03,10,15,31,8.10
2016,03,10,15,32,6.40
2016,03,10,15,33,8.10
2016,03,10,15,34,6.40
2016,03,10,15,35,6.40
2016,03,10,15,36,4.80
2016,03,10,15,37,6.40
2016,03,10,15,38,9.60
2016,03,10,15,39,9.60
2016,03,10,15,40,6.40
2016,03,10,15,41,6.40
2016,03,10,15,42,6.40
2016,03,10,15,43,4.80
2016,03,10,15,44,4.80
2016,03,10,15,45,8.10
2016,03,10,15,46,3.20
2016,03,10,15,47,4.80
2016,03,10,15,48,4.80
2016,03,10,15,49,9.60
2016,03,10,15,50,8.10
2016,03,10,15,51,6.40
2016,03,10,15,52,6.40
2016,03,10,15,53,16.10
2016,03,10,15,54,12.90
2016,03,10,15,55,16.10
2016,03,10,15,56,6.40
2016,03,10,15,57,9.60
2016,03,10,15,58,11.30
2016,03,10,15,59,9.60
2016,03,10,16,00,12.90
2016,03,10,16,01,16.10
2016,03,10,16,02,14.50
2016,03,10,16,03,12.90
2016,03,10,16,04,11.30
2016,03,10,16,05,12.90
2016,03,10,16,06,9.60
2016,03,10,16,07,20.90
2016,03,10,16,08,14.50
2016,03,10,16,09,11.30
2016,03,10,16,10,9.60
2016,03,10,16,11,12.90
2016,03,10,16,12,12.90
2016,03,10,16,13,11.30
2016,03,10,16,14,12.90
2016,03,10,16,15,14.50
2016,03,10,16,16,16.10
2016,03,10,16,17,12.90
2016,03,10,16,18,9.60
2016,03,10,16,19,11.30
2016,03,10,16,20,16.10
2016,03,10,16,21,12.90
2016,03,10,16,22,19.30
2016,03,10,16,23,16.10
2016,03,10,16,24,9.60
2016,03,10,16,25,14.50
2016,03,10,16,26,14.50
2016,03,10,16,27,12.90
2016,03,10,16,28,14.50
2016,03,10,16,29,8.10
2016,03,10,16,30,8.10
2016,03,10,16,31,8.10
2016,03,10,16,32,14.50
2016,03,10,16,33,16.10
2016,03,10,16,34,11.30
2016,03,10,16,35,9.60
2016,03,10,16,36,3.20
2016,03,10,16,37,1.60
2016,03,10,16,38,1.60
2016,03,10,16,39,1.60
2016,03,10,16,40,4.80
2016,03,10,16,41,12.90
2016,03,10,16,42,9.60
2016,03,10,16,43,9.60
2016,03,10,16,44,4.80
2016,03,10,16,45,3.20
2016,03,10,16,46,1.60
2016,03,10,16,47,8.10
2016,03,10,16,48,11.30
2016,03,10,16,49,16.10
2016,03,10,16,50,17.70
2016,03,10,16,51,22.50
2016,03,10,16,52,14.50
2016,03,10,16,53,8.10
2016,03,10,16,54,9.60
2016,03,10,16,55,11.30
2016,03,10,16,56,11.30
2016,03,10,16,57,8.10
2016,03,10,16,58,8.10
2016,03,10,16,59,6.40
2016,03,10,17,00,11.30
2016,03,10,17,01,11.30
2016,03,10,17,02,14.50
2016,03,10,17,03,12.90
2016,03,10,17,04,4.80
2016,03,10,17,05,8.10
2016,03,10,17,06,6.40
2016,03,10,17,07,11.30
2016,03,10,17,08,14.50
2016,03,10,17,09,14.50
2016,03,10,17,10,12.90
2016,03,10,17,11,9.60
2016,03,10,17,12,12.90
2016,03,10,17,13,9.60
2016,03,10,17,14,8.10
2016,03,10,17,15,9.60
2016,03,10,17,16,6.40
2016,03,10,17,17,6.40
2016,03,10,17,18,9.60
2016,03,10,17,19,9.60
2016,03,10,17,20,6.40
2016,03,10,17,21,11.30
2016,03,10,17,22,11.30
2016,03,10,17,23,8.10
2016,03,10,17,24,9.60
2016,03,10,17,25,8.10
2016,03,10,17,26,11.30
2016,03,10,17,27,9.60
2016,03,10,17,28,8.10
2016,03,10,17,29,8.10
2016,03,10,17,30,8.10
2016,03,10,17,31,12.90
2016,03,10,17,32,12.90
2016,03,10,17,33,8.10
2016,03,10,17,34,12.90
2016,03,10,17,35,9.60
2016,03,10,17,36,14.50
2016,03,10,17,37,9.60
2016,03,10,17,38,4.80
2016,03,10,17,39,4.80
2016,03,10,17,40,3.20
2016,03,10,17,41,1.60
2016,03,10,17,42,3.20
2016,03,10,17,43,4.80
2016,03,10,17,45,3.20
2016,03,10,17,46,1.60
2016,03,10,17,47,1.60
2016,03,10,17,48,3.20
2016,03,10,17,49,3.20
2016,03,10,17,50,1.60
2016,03,10,17,51,1.60
2016,03,10,17,52,1.60
2016,03,10,17,54,1.60
2016,03,10,17,55,3.20
2016,03,10,17,56,3.20
2016,03,10,17,57,4.80
2016,03,10,17,58,4.80
2016,03,10,17,59,3.20
2016,03,10,18,00,3.20
2016,03,10,18,01,1.60
2016,03,10,18,02,1.60
2016,03,10,18,14,1.60
2016,03,10,18,15,1.60
2016,03,10,18,16,1.60
2016,03,10,18,17,1.60
2016,03,10,18,18,1.60
2016,03,10,18,19,1.60
2016,03,10,18,20,1.60
2016,03,10,18,21,1.60
2016,03,10,18,22,1.60
2016,03,10,18,23,3.20
2016,03,10,18,24,3.20
2016,03,10,18,25,3.20
2016,03,10,18,26,1.60
2016,03,10,18,27,1.60
2016,03,10,18,28,1.60
2016,03,10,18,29,3.20
2016,03,10,18,33,1.60
2016,03,10,18,34,1.60
2016,03,10,18,35,1.60
2016,03,10,18,36,1.60
2016,03,10,18,42,1.60
2016,03,10,18,47,1.60
2016,03,10,18,56,1.60
2016,03,10,18,57,1.60
2016,03,10,18,58,1.60
2016,03,10,18,59,3.20
2016,03,10,19,00,3.20
2016,03,10,19,01,1.60
2016,03,10,19,02,1.60
2016,03,10,19,06,1.60
2016,03,10,19,07,1.60
2016,03,10,19,08,1.60
2016,03,10,19,09,1.60
2016,03,10,19,29,1.60
2016,03,10,19,30,1.60
2016,03,10,19,31,1.60
2016,03,10,19,39,1.60
2016,03,10,19,40,1.60
2016,03,10,19,47,1.60
2016,03,10,20,10,1.60
2016,03,10,20,11,1.60
2016,03,10,20,39,1.60
2016,03,10,20,40,1.60
2016,03,10,20,56,1.60
2016,03,10,20,57,1.60
2016,03,10,20,58,1.60
2016,03,10,21,01,1.60
2016,03,10,21,02,1.60
2016,03,10,21,11,1.60
2016,03,10,21,13,1.60
2016,03,10,21,14,1.60
2016,03,10,21,15,1.60
2016,03,10,21,16,1.60